Weather History for Wildwood, NJ

Change the Weather History Date:

Saturday, April 26, 2014

  Actual Average Record
Temperature  
Mean Temperature 58 °F -  
Max Temperature 69 °F 62 °F 75 °F (2004)
Min Temperature 48 °F 46 °F 37 °F (2001)
Degree Days  
Heating Degree Days 6    
Growing Degree Days 8 (Base 50)    
Moisture  
Dew Point 44 °F    
Average Humidity 60    
Maximum Humidity 94    
Minimum Humidity 38    
Precipitation  
Precipitation 0.00 in - - ()
Sea Level Pressure  
Sea Level Pressure 29.78 in    
Wind  
Wind Speed 11 mph (West)    
Max Wind Speed 17 mph    
Max Gust Speed 28 mph    
Visibility 10 miles    
Events Thunderstorm    
Averages and records for this station are not official NWS values.
T = Trace of Precipitation, MM = Missing Value Source: NWS Daily Summary

Daily Weather History Graph

Daily Weather History Graph

Search for Another Location

Airport:

Trip Planner

Search our weather history database for the weather conditions in past years. The results will help you decide how hot, cold, wet, or windy it might be!

Date:

Astronomy

Apr. 26, 2014 Rise Set
Actual Time 6:07 AM EDT 7:47 PM EDT
Civil Twilight 5:39 AM EDT 8:16 PM EDT
Nautical Twilight 5:05 AM EDT 8:50 PM EDT
Astronomical Twilight 4:28 AM EDT 9:27 PM EDT
Moon 4:29 AM EDT (4/26) 5:14 PM EDT (4/26)
Length of Visible Light 14h 36m
Length of Day
13h 39m
Waning Crescent, 8% of the Moon is Illuminated
Apr 26
Waning Crescent
Apr 29
New
May 6
First Quarter
May 14
Full
May 21
Last Quarter

Hourly Weather History & Observations

Time (EDT) Temp. Dew Point Humidity Pressure Visibility Wind Dir Wind Speed Gust Speed Precip Events Conditions
12:15 AM - - N/A% - - North - - N/A   Unknown
12:35 AM - - N/A% - - North - - N/A   Unknown
1:15 AM - - N/A% - - North - - N/A   Unknown
1:35 AM - - N/A% - - North - - N/A   Unknown
1:55 AM - - N/A% - - North - - N/A   Unknown
2:15 AM - - N/A% - - North - - N/A   Unknown
2:35 AM - - N/A% - - North - - N/A   Unknown
2:55 AM - - N/A% - - North - - N/A   Unknown
3:15 AM 53.6 °F 51.8 °F 94% 29.67 in 4.0 mi West 11.5 mph - N/A   Unknown
3:35 AM 53.6 °F 50.0 °F 88% 29.68 in 5.0 mi West 10.4 mph - N/A   Overcast
3:55 AM 51.8 °F 48.2 °F 88% 29.69 in 9.0 mi WNW 10.4 mph 23.0 mph N/A   Overcast
4:15 AM 51.8 °F 46.4 °F 82% 29.70 in 10.0 mi WNW 11.5 mph 20.7 mph N/A   Overcast
4:35 AM 50.0 °F 46.4 °F 87% 29.71 in 10.0 mi WNW 12.7 mph 19.6 mph N/A   Overcast
4:55 AM 50.0 °F 46.4 °F 87% 29.72 in 10.0 mi NW 10.4 mph 17.3 mph N/A   Overcast
5:15 AM 50.0 °F 46.4 °F 87% 29.73 in 10.0 mi WNW 11.5 mph 24.2 mph N/A   Mostly Cloudy
5:35 AM 50.0 °F 44.6 °F 82% 29.74 in 10.0 mi NW 9.2 mph 21.9 mph N/A   Overcast
5:55 AM 50.0 °F 44.6 °F 82% 29.74 in 10.0 mi NW 11.5 mph 24.2 mph N/A   Overcast
6:15 AM 48.2 °F 44.6 °F 87% 29.74 in 9.0 mi NW 12.7 mph 21.9 mph N/A   Overcast
6:35 AM 48.2 °F 44.6 °F 87% 29.76 in 8.0 mi NW 11.5 mph 19.6 mph N/A   Mostly Cloudy
6:55 AM 50.0 °F 44.6 °F 82% 29.77 in 9.0 mi NW 9.2 mph 20.7 mph N/A   Overcast
7:15 AM 50.0 °F 44.6 °F 82% 29.79 in 9.0 mi NW 12.7 mph 23.0 mph N/A   Overcast
7:35 AM 51.8 °F 44.6 °F 76% 29.79 in 10.0 mi NW 12.7 mph 26.5 mph N/A   Mostly Cloudy
7:55 AM 51.8 °F 44.6 °F 76% 29.80 in 10.0 mi NW 11.5 mph 19.6 mph N/A   Partly Cloudy
8:15 AM - - N/A% - - North - - N/A   Unknown
8:35 AM - - N/A% - - North - - N/A   Unknown
8:55 AM - - N/A% - - North - - N/A   Unknown
9:15 AM - - N/A% - - North - - N/A   Unknown
9:35 AM - - N/A% - - North - - N/A   Unknown
9:55 AM 55.4 °F 44.6 °F 67% 29.84 in 10.0 mi NW 10.4 mph - N/A   Unknown
10:15 AM 57.2 °F 44.6 °F 63% 29.86 in 10.0 mi WNW 11.5 mph 20.7 mph N/A   Clear
10:35 AM 55.4 °F 44.6 °F 67% 29.86 in 10.0 mi West 15.0 mph 20.7 mph N/A   Clear
10:55 AM 57.2 °F 42.8 °F 59% 29.87 in 10.0 mi WNW 15.0 mph 21.9 mph N/A   Clear
11:15 AM 57.2 °F 42.8 °F 59% 29.87 in 10.0 mi WNW 15.0 mph 21.9 mph N/A   Clear
11:35 AM 59.0 °F 42.8 °F 55% 29.87 in 10.0 mi West 13.8 mph 21.9 mph N/A   Clear
11:55 AM 59.0 °F 42.8 °F 55% 29.86 in 10.0 mi WNW 11.5 mph 19.6 mph N/A   Clear
12:15 PM 60.8 °F 42.8 °F 52% 29.85 in 10.0 mi WNW 9.2 mph - N/A   Clear
12:35 PM 60.8 °F 42.8 °F 52% 29.84 in 10.0 mi WNW 11.5 mph - N/A   Clear
12:55 PM 60.8 °F 42.8 °F 52% 29.83 in 10.0 mi West 10.4 mph 17.3 mph N/A   Clear
1:15 PM 62.6 °F 42.8 °F 48% 29.82 in 10.0 mi WSW 8.1 mph - N/A   Clear
1:35 PM 62.6 °F 42.8 °F 48% 29.82 in 10.0 mi WSW 11.5 mph - N/A   Clear
1:55 PM 64.4 °F 42.8 °F 45% 29.81 in 10.0 mi West 12.7 mph - N/A   Clear
2:15 PM 64.4 °F 41.0 °F 42% 29.82 in 10.0 mi West 8.1 mph 16.1 mph N/A   Clear
2:35 PM 64.4 °F 41.0 °F 42% 29.80 in 10.0 mi WSW 5.8 mph - N/A   Clear
2:55 PM 66.2 °F 41.0 °F 40% 29.80 in 10.0 mi WSW 8.1 mph - N/A   Clear
3:15 PM 66.2 °F 42.8 °F 43% 29.80 in 10.0 mi WSW 10.4 mph - N/A   Clear
3:35 PM 68.0 °F 42.8 °F 40% 29.79 in 10.0 mi WSW 9.2 mph - N/A   Clear
3:55 PM 68.0 °F 42.8 °F 40% 29.78 in 10.0 mi West 9.2 mph - N/A   Partly Cloudy
4:15 PM 69.8 °F 42.8 °F 38% 29.78 in 10.0 mi SW 12.7 mph - N/A   Partly Cloudy
4:35 PM 66.2 °F 44.6 °F 46% 29.78 in 10.0 mi SSE 9.2 mph - N/A   Partly Cloudy
4:55 PM 64.4 °F 42.8 °F 45% 29.78 in 10.0 mi SSE 12.7 mph - N/A   Clear
5:15 PM 64.4 °F 42.8 °F 45% 29.78 in 10.0 mi SE 9.2 mph - N/A   Clear
5:35 PM 64.4 °F 42.8 °F 45% 29.78 in 10.0 mi SSE 10.4 mph - N/A   Mostly Cloudy
5:55 PM 62.6 °F 42.8 °F 48% 29.77 in 10.0 mi SSE 8.1 mph - N/A   Mostly Cloudy
6:15 PM 62.6 °F 42.8 °F 48% 29.77 in 10.0 mi SE 6.9 mph - N/A   Mostly Cloudy
6:35 PM 60.8 °F 44.6 °F 55% 29.76 in 10.0 mi SE 8.1 mph - N/A   Mostly Cloudy
6:55 PM 60.8 °F 44.6 °F 55% 29.76 in 10.0 mi SSE 5.8 mph - N/A   Mostly Cloudy
7:15 PM 59.0 °F 44.6 °F 59% 29.76 in 10.0 mi SE 5.8 mph - N/A   Scattered Clouds
7:35 PM 57.2 °F 44.6 °F 63% 29.75 in 10.0 mi SSE 6.9 mph - N/A   Scattered Clouds
7:55 PM 57.2 °F 44.6 °F 63% 29.76 in 10.0 mi SSE 5.8 mph - N/A   Mostly Cloudy
8:15 PM 57.2 °F 44.6 °F 63% 29.76 in 10.0 mi South 4.6 mph - N/A   Scattered Clouds
8:35 PM 64.4 °F 44.6 °F 49% 29.75 in 10.0 mi WSW 11.5 mph 24.2 mph N/A   Scattered Clouds
8:55 PM 66.2 °F 46.4 °F 49% 29.76 in 10.0 mi WSW 13.8 mph 18.4 mph N/A Thunderstorm Partly Cloudy
9:15 PM 66.2 °F 42.8 °F 43% 29.76 in 10.0 mi WSW 17.3 mph 27.6 mph N/A   Partly Cloudy
9:35 PM 64.4 °F 42.8 °F 45% 29.76 in 10.0 mi West 12.7 mph 19.6 mph N/A   Clear
9:55 PM 64.4 °F 42.8 °F 45% 29.78 in 10.0 mi West 16.1 mph 21.9 mph N/A   Mostly Cloudy
10:15 PM 64.4 °F 44.6 °F 49% 29.80 in 10.0 mi WNW 10.4 mph 23.0 mph N/A   Scattered Clouds
10:35 PM 64.4 °F 44.6 °F 49% 29.82 in 10.0 mi WNW 8.1 mph 17.3 mph N/A   Partly Cloudy
10:55 PM 62.6 °F 44.6 °F 52% 29.82 in 10.0 mi WNW 9.2 mph - N/A   Partly Cloudy
11:15 PM - - N/A% - - North - - N/A   Unknown
11:35 PM - - N/A% - - North - - N/A   Unknown
11:55 PM - - N/A% - - North - - N/A   Unknown